Location: Akinsdale
(53.6273°N, 113.5946°W)
Time: 22:17:55
(UTC+00:00)

BlueWalker 3 - Visible Passes

Search period start: 29 May 2023 00:00
Search period end: 08 June 2023 00:00
Orbit: 495 x 512 km, 53.2° (Epoch: 29 May)

Date Brightness Start Highest point End Pass type
(mag) Time Alt. Az. Time Alt. Az. Time Alt. Az.
29 May 2.2 05:41:02 10° SW 05:44:43 45° SSE 05:48:26 10° E visible
29 May 1.8 07:19:13 10° W 07:23:06 84° S 07:27:00 10° E visible
29 May 1.9 08:57:44 10° W 09:01:37 67° SSW 09:05:29 10° ESE visible
30 May 2.2 05:20:41 10° SW 05:24:22 45° SSE 05:28:06 10° E visible
30 May 1.8 06:58:53 10° W 07:02:45 85° S 07:06:40 10° E visible
30 May 1.8 08:37:24 10° W 08:41:16 66° SSW 08:45:08 10° ESE visible
30 May 3.0 10:16:11 10° W 10:19:23 25° SW 10:22:36 10° SSE visible
31 May 2.2 05:00:20 10° SW 05:04:02 46° SSE 05:07:46 10° E visible
31 May 1.8 06:38:32 10° W 06:42:25 85° S 06:46:20 10° E visible
31 May 1.8 08:17:04 10° W 08:20:55 66° SSW 08:24:47 10° ESE visible
31 May 3.0 09:55:51 10° W 09:59:01 24° SW 10:02:13 10° SSE visible
01 Jun 2.2 04:39:58 10° SW 04:43:40 47° SSE 04:47:24 10° E visible
01 Jun 1.8 06:18:11 10° W 06:22:04 85° S 06:25:58 10° E visible
01 Jun 1.9 07:56:43 10° W 08:00:34 65° SSW 08:04:25 10° ESE visible
01 Jun 3.0 09:35:31 10° W 09:38:39 24° SW 09:41:49 10° SSE visible
02 Jun 1.9 05:57:50 10° W 06:01:42 85° S 06:05:36 10° E visible
02 Jun 1.9 07:36:21 10° W 07:40:12 64° SSW 07:44:04 10° ESE visible
02 Jun 3.1 09:15:10 10° W 09:18:17 23° SW 09:21:25 10° SSE visible
03 Jun 1.9 05:37:29 10° W 05:41:21 85° S 05:45:14 10° E visible
03 Jun 1.9 07:16:00 10° W 07:19:49 63° SSW 07:23:41 10° ESE visible
03 Jun 3.1 08:54:49 10° W 08:57:55 23° SW 08:59:40 17° S visible
04 Jun 1.9 05:17:06 10° W 05:20:58 86° S 05:24:52 10° E visible
04 Jun 1.9 06:55:37 10° W 06:59:27 63° SSW 07:03:18 10° ESE visible
04 Jun 3.2 08:34:28 10° W 08:37:31 22° SW 08:38:16 21° SSW visible
05 Jun 1.9 04:56:44 10° W 05:00:35 86° S 05:04:29 10° E visible
05 Jun 1.9 06:35:15 10° W 06:39:04 62° SSW 06:42:53 10° ESE visible
05 Jun 3.2 08:14:06 10° W 08:17:08 22° SW 08:17:30 22° SSW visible
06 Jun 1.9 06:14:51 10° W 06:18:40 61° SSW 06:22:24 11° ESE visible
06 Jun 3.2 07:53:44 10° W 07:56:44 21° SW 07:57:03 21° SSW visible
07 Jun 2.0 05:54:28 10° W 05:58:16 60° SSW 06:02:04 10° ESE visible
07 Jun 3.3 07:33:21 10° W 07:36:19 21° SW 07:36:43 21° SSW visible
